| time (UTC) | temp F | wind direction | speed MPH | gust MPH | rain 1hr in | rain 24hr in | rain mn in | humidity % | barometer mb |
| 20260509174554 | 68 | 269 | 9.0 | 15.0 | 0.00 | 0.00 | 0.00 | 33 | 1001.9 |
| 20260509173104 | 68 | 252 | 7.0 | 14.0 | 0.00 | 0.00 | 0.00 | 33 | 1002.1 |
| 20260509171606 | 67 | 315 | 8.0 | 20.0 | 0.00 | 0.00 | 0.00 | 34 | 1002.2 |
| 20260509170055 | 66 | 285 | 11.0 | 25.0 | 0.00 | 0.00 | 0.00 | 34 | 1002.3 |
| 20260509164556 | 64 | 253 | 8.0 | 14.0 | 0.00 | 0.00 | 0.00 | 37 | 1002.5 |
| 20260509163059 | 63 | 276 | 4.0 | 13.0 | 0.00 | 0.00 | 0.00 | 38 | 1002.7 |
| 20260509161553 | 62 | 287 | 5.0 | 11.0 | 0.00 | 0.00 | 0.00 | 38 | 1002.8 |
| 20260509160054 | 63 | 292 | 3.0 | 11.0 | 0.00 | 0.00 | 0.00 | 38 | 1003.1 |
| 20260509154552 | 62 | 276 | 3.0 | 7.0 | 0.00 | 0.00 | 0.00 | 37 | 1003.1 |
| 20260509153049 | 63 | 250 | 6.0 | 14.0 | 0.00 | 0.00 | 0.00 | 37 | 1003.0 |
| 20260509151558 | 63 | 249 | 5.0 | 9.0 | 0.00 | 0.00 | 0.00 | 42 | 1002.9 |
| 20260509150054 | 61 | 285 | 3.0 | 9.0 | 0.00 | 0.00 | 0.00 | 45 | 1002.5 |
| 20260509144553 | 61 | 273 | 4.0 | 7.0 | 0.00 | 0.00 | 0.00 | 47 | 1002.1 |
| 20260509143049 | 61 | 285 | 4.0 | 6.0 | 0.00 | 0.00 | 0.00 | 49 | 1002.0 |
| 20260509141554 | 60 | 271 | 3.0 | 6.0 | 0.00 | 0.00 | 0.00 | 53 | 1002.2 |
| 20260509140054 | 60 | 277 | 3.0 | 6.0 | 0.00 | 0.00 | 0.00 | 53 | 1002.0 |
| 20260509134601 | 60 | 257 | 3.0 | 9.0 | 0.00 | 0.00 | 0.00 | 54 | 1001.8 |
| 20260509133053 | 59 | 270 | 6.0 | 10.0 | 0.00 | 0.00 | 0.00 | 55 | 1001.9 |
| 20260509131609 | 58 | 281 | 5.0 | 10.0 | 0.00 | 0.00 | 0.00 | 60 | 1002.0 |
| 20260509130104 | 58 | 280 | 6.0 | 13.0 | 0.00 | 0.00 | 0.00 | 61 | 1001.8 |
| 20260509124551 | 58 | 269 | 2.0 | 9.0 | 0.00 | 0.00 | 0.00 | 66 | 1001.6 |
| 20260509123101 | 57 | 240 | 3.0 | 8.0 | 0.00 | 0.00 | 0.00 | 69 | 1001.6 |
| 20260509121552 | 56 | 229 | 3.0 | 8.0 | 0.00 | 0.00 | 0.00 | 75 | 1001.6 |
| 20260509120051 | 55 | 285 | 4.0 | 7.0 | 0.00 | 0.00 | 0.00 | 78 | 1001.7 |
| 20260509114608 | 54 | 285 | 4.0 | 7.0 | 0.00 | 0.00 | 0.00 | 80 | 1001.5 |
| 20260509113105 | 53 | 253 | 4.0 | 6.0 | 0.00 | 0.00 | 0.00 | 82 | 1001.4 |
| 20260509111552 | 53 | 256 | 3.0 | 6.0 | 0.00 | 0.00 | 0.00 | 83 | 1001.2 |
| 20260509110104 | 53 | 232 | 4.0 | 9.0 | 0.00 | 0.00 | 0.00 | 82 | 1001.3 |
| 20260509104600 | 53 | 266 | 3.0 | 9.0 | 0.00 | 0.00 | 0.00 | 82 | 1000.9 |
| 20260509103054 | 53 | 252 | 4.0 | 10.0 | 0.00 | 0.00 | 0.00 | 81 | 1000.7 |
| 20260509101552 | 54 | 235 | 4.0 | 8.0 | 0.00 | 0.00 | 0.00 | 81 | 1000.5 |
| 20260509100054 | 54 | 250 | 6.0 | 10.0 | 0.00 | 0.00 | 0.00 | 80 | 1000.7 |
| 20260509094610 | 54 | 237 | 4.0 | 11.0 | 0.00 | 0.00 | 0.00 | 79 | 1000.8 |
| 20260509093054 | 54 | 266 | 4.0 | 9.0 | 0.00 | 0.00 | 0.00 | 79 | 1001.2 |
| 20260509091556 | 54 | 259 | 5.0 | 10.0 | 0.00 | 0.00 | 0.00 | 78 | 1001.2 |
| 20260509084600 | 54 | 218 | 6.0 | 13.0 | 0.00 | 0.00 | 0.00 | 78 | 1001.0 |
| 20260509083052 | 54 | 255 | 7.0 | 13.0 | 0.00 | 0.00 | 0.00 | 78 | 1000.9 |
| 20260509081554 | 54 | 262 | 5.0 | 10.0 | 0.00 | 0.00 | 0.00 | 78 | 1001.1 |
| 20260509080053 | 55 | 243 | 7.0 | 11.0 | 0.00 | 0.00 | 0.00 | 77 | 1001.1 |
| 20260509074553 | 55 | 257 | 5.0 | 11.0 | 0.00 | 0.00 | 0.00 | 76 | 1001.2 |
| 20260509073051 | 55 | 235 | 6.0 | 12.0 | 0.00 | 0.00 | 0.00 | 75 | 1001.3 |
| 20260509071551 | 56 | 240 | 5.0 | 12.0 | 0.00 | 0.00 | 0.00 | 73 | 1001.3 |
| 20260509070106 | 56 | 205 | 5.0 | 13.0 | 0.00 | 0.00 | 0.00 | 71 | 1001.4 |
| 20260509064553 | 56 | 273 | 5.0 | 11.0 | 0.00 | 0.00 | 0.00 | 69 | 1001.6 |
| 20260509063052 | 57 | 257 | 6.0 | 14.0 | 0.00 | 0.00 | 0.00 | 67 | 1001.8 |
| 20260509061607 | 57 | 251 | 6.0 | 13.0 | 0.00 | 0.00 | 0.00 | 65 | 1002.0 |
| 20260509060052 | 57 | 250 | 8.0 | 14.0 | 0.00 | 0.00 | 0.00 | 62 | 1002.4 |
| 20260509054616 | 57 | 240 | 7.0 | 15.0 | 0.00 | 0.00 | 0.00 | 60 | 1002.4 |
| 20260509053142 | 57 | 207 | 4.0 | 12.0 | 0.00 | 0.00 | 0.00 | 58 | 1002.6 |
| 20260509051555 | 58 | 253 | 5.0 | 10.0 | 0.00 | 0.00 | 0.00 | 57 | 1002.8 |
| 20260509050056 | 56 | 245 | 3.0 | 7.0 | 0.00 | 0.00 | 0.00 | 62 | 1003.0 |
| 20260509044553 | 54 | 245 | 2.0 | 3.0 | 0.00 | 0.00 | 0.00 | 70 | 1003.0 |
| 20260509043057 | 53 | 240 | 0.0 | 1.0 | 0.00 | 0.00 | 0.00 | 74 | 1002.8 |
| 20260509041554 | 53 | 68 | 0.0 | 1.0 | 0.00 | 0.00 | 0.00 | 73 | 1003.0 |
| 20260509040112 | 54 | 0 | 0.0 | 2.0 | 0.00 | 0.00 | 0.00 | 72 | 1003.1 |
| 20260509034619 | 54 | 0 | 1.0 | 4.0 | 0.00 | 0.00 | 0.00 | 70 | 1003.0 |
| 20260509033055 | 54 | 0 | 0.0 | 3.0 | 0.00 | 0.00 | 0.00 | 70 | 1003.0 |
| 20260509031553 | 54 | 0 | 0.0 | 2.0 | 0.00 | 0.00 | 0.00 | 68 | 1003.0 |
| 20260509030109 | 54 | 0 | 0.0 | 1.0 | 0.00 | 0.00 | 0.00 | 66 | 1003.3 |
| 20260509024552 | 55 | 0 | 0.0 | 1.0 | 0.00 | 0.00 | 0.00 | 64 | 1003.4 |
| 20260509023054 | 55 | 96 | 0.0 | 3.0 | 0.00 | 0.00 | 0.00 | 62 | 1003.5 |
| 20260509021556 | 56 | 0 | 0.0 | 2.0 | 0.00 | 0.00 | 0.00 | 60 | 1003.5 |
| 20260509020052 | 56 | 71 | 0.0 | 1.0 | 0.00 | 0.00 | 0.00 | 59 | 1003.5 |
| 20260509014551 | 57 | 0 | 0.0 | 2.0 | 0.00 | 0.00 | 0.00 | 56 | 1003.7 |
| 20260509013109 | 58 | 0 | 1.0 | 4.0 | 0.00 | 0.00 | 0.00 | 53 | 1003.7 |
| 20260509011608 | 60 | 103 | 1.0 | 5.0 | 0.00 | 0.00 | 0.00 | 51 | 1003.8 |
| 20260509010053 | 61 | 91 | 4.0 | 9.0 | 0.00 | 0.00 | 0.00 | 44 | 1003.8 |
| 20260509004554 | 65 | 0 | 0.0 | 2.0 | 0.00 | 0.00 | 0.00 | 28 | 1003.7 |
| 20260509003113 | 66 | 246 | 1.0 | 4.0 | 0.00 | 0.00 | 0.00 | 26 | 1003.7 |
| 20260509001552 | 66 | 260 | 2.0 | 5.0 | 0.00 | 0.00 | 0.00 | 27 | 1003.7 |
| 20260509000111 | 67 | 240 | 2.0 | 8.0 | 0.00 | 0.00 | 0.00 | 29 | 1003.8 |
| 20260508234553 | 67 | 243 | 1.0 | 5.0 | 0.00 | 0.00 | 0.00 | 29 | 1003.8 |
| 20260508233054 | 67 | 243 | 5.0 | 11.0 | 0.00 | 0.00 | 0.00 | 25 | 1004.0 |
| 20260508231555 | 68 | 284 | 2.0 | 7.0 | 0.00 | 0.00 | 0.00 | 27 | 1004.2 |
| 20260508230055 | 67 | 240 | 4.0 | 9.0 | 0.00 | 0.00 | 0.00 | 25 | 1004.3 |
| 20260508224604 | 67 | 258 | 6.0 | 11.0 | 0.00 | 0.00 | 0.00 | 24 | 1004.4 |
| 20260508223100 | 67 | 253 | 4.0 | 9.0 | 0.00 | 0.00 | 0.00 | 26 | 1004.4 |
| 20260508221601 | 67 | 298 | 5.0 | 14.0 | 0.00 | 0.00 | 0.00 | 24 | 1004.6 |
| 20260508220059 | 67 | 276 | 3.0 | 10.0 | 0.00 | 0.00 | 0.00 | 25 | 1004.7 |
| 20260508214600 | 67 | 290 | 2.0 | 9.0 | 0.00 | 0.00 | 0.00 | 26 | 1004.7 |
| 20260508213113 | 67 | 0 | 5.0 | 9.0 | 0.00 | 0.00 | 0.00 | 23 | 1004.8 |
| 20260508211600 | 67 | 271 | 3.0 | 7.0 | 0.00 | 0.00 | 0.00 | 24 | 1004.9 |
| 20260508210057 | 66 | 249 | 6.0 | 13.0 | 0.00 | 0.00 | 0.00 | 23 | 1005.1 |
| 20260508204603 | 67 | 262 | 9.0 | 18.0 | 0.00 | 0.00 | 0.00 | 22 | 1005.4 |
| 20260508203101 | 67 | 245 | 5.0 | 9.0 | 0.00 | 0.00 | 0.00 | 24 | 1005.6 |
| 20260508201613 | 67 | 225 | 8.0 | 12.0 | 0.00 | 0.00 | 0.00 | 21 | 1005.7 |
| 20260508200109 | 67 | 271 | 2.0 | 12.0 | 0.00 | 0.00 | 0.00 | 20 | 1005.9 |
| 20260508194600 | 67 | 16 | 3.0 | 6.0 | 0.00 | 0.00 | 0.00 | 23 | 1006.1 |
| 20260508193106 | 66 | 221 | 2.0 | 13.0 | 0.00 | 0.00 | 0.00 | 22 | 1006.4 |
| 20260508191555 | 67 | 214 | 2.0 | 8.0 | 0.00 | 0.00 | 0.00 | 23 | 1006.5 |
| 20260508190057 | 65 | 233 | 3.0 | 7.0 | 0.00 | 0.00 | 0.00 | 24 | 1006.8 |
| 20260508184604 | 67 | 219 | 1.0 | 5.0 | 0.00 | 0.00 | 0.00 | 26 | 1006.9 |
| 20260508183105 | 66 | 72 | 3.0 | 10.0 | 0.00 | 0.00 | 0.00 | 21 | 1007.1 |
| 20260508181554 | 67 | 233 | 0.0 | 6.0 | 0.00 | 0.00 | 0.00 | 25 | 1007.3 |
| 20260508180059 | 66 | 89 | 0.0 | 4.0 | 0.00 | 0.00 | 0.00 | 23 | 1007.4 |